Lid_Strength_Index
7 7 7 6 6 5 5 6 7 7 6 7 7 8 8 8 8 8 8 9 8 8 8 8 8 8 8 8 7 7 7 7 7 9 9 9 9 9 9 9 8 9 9
7 7 6 6 6 6 6 6 7 7 8 8 8 7 8 8 9 9 9 9 8 8 8 8 8 7 9 8 8 8 8 8 7 9 10 10 10 10 10 9 9 9 10
7 7 7 6 6 6 6 6 6 7 8 8 8 8 9 9 10 10 9 9 9 9 9 9 8 8 8 8 7 7 7 7 8 8 10 10 11 10 10 10 10 11 12
8 8 7 7 7 7 7 7 7 7 8 9 10 10 10 10 10 10 10 10 10 10 10 10 9 7 7 7 7 7 7 8 8 8 9 10 10 10 10 12 12 12 14
8 8 8 8 8 8 8 8 8 8 9 9 10 10 10 10 9 10 9 10 10 9 8 9 8 8 7 7 8 8 8 9 10 10 10 10 11 11 12 12 13 14 15
9 8 8 8 8 8 8 9 9 9 10 10 10 10 10 9 7 6 8 10 9 8 9 9 9 8 8 7 8 8 8 9 10 11 11 11 11 12 13 14 16 18 17
9 8 8 8 8 8 9 10 10 11 11 11 11 10 11 10 7 7 7 10 10 10 10 11 11 10 11 12 10 10 9 9 9 11 11 12 12 13 15 17 16 16 17
8 8 8 8 9 9 10 10 11 11 11 11 11 11 11 10 7 7 7 11 12 12 11 12 12 13 13 13 15 15 15 14 15 14 14 14 14 14 15 15 16 16 16
8 8 8 8 9 10 10 10 11 12 12 12 12 12 12 12 8 7 9 12 12 12 12 12 12 13 12 11 15 15 15 15 11 11 11 11 11 12 13 16 16 18 17
8 8 8 8 8 9 10 11 11 12 12 12 12 12 11 13 8 7 9 11 12 12 12 12 10 13 12 10 16 16 17 16 16 15 16 16 15 14 12 16 15 17 18
9 9 9 9 9 9 11 12 12 12 12 13 12 12 11 11 11 7 7 11 12 13 13 13 13 10 11 10 12 17 16 15 14 17 18 18 17 16 17 16 15 17 20
9 9 9 9 9 10 11 12 12 12 11 11 11 11 11 10 8 8 7 9 11 14 14 14 15 11 10 10 11 13 13 14 16 17 18 18 19 18 17 16 16 16 16
9 9 10 10 10 11 11 10 11 11 11 11 11 11 11 11 11 8 8 8 10 15 16 14 13 11 10 11 10 11 12 16 17 18 18 17 17 17 17 17 16 16 16
7 8 10 11 11 11 10 10 10 10 11 11 11 12 11 12 12 11 10 9 8 11 12 14 13 13 12 13 13 13 14 15 16 17 18 17 17 18 17 16 17 17 18
7 7 8 9 10 11 12 10 10 9 9 10 11 11 12 12 12 10 11 12 12 12 14 15 16 16 16 16 16 16 16 16 16 17 18 18 17 16 16 17 17 19 20
9 8 7 8 8 9 10 10 8 8 7 7 8 10 11 9 9 9 9 9 10 10 14 16 17 16 16 16 16 16 17 16 17 16 18 18 18 18 18 18 19 19 20
10 9 8 8 8 9 10 10 10 10 7 8 8 8 8 10 9 9 9 9 9 10 13 15 16 16 16 16 17 17 18 17 17 18 18 19 19 19 17 19 20 20 20
9 9 9 8 8 8 9 10 10 10 11 11 8 8 8 8 8 9 8 9 12 11 13 13 14 15 16 16 17 17 17 17 18 17 19 20 20 20 21 20 19 21 22
8 8 9 9 8 7 9 9 10 10 10 10 12 9 8 8 8 8 8 11 13 13 13 13 14 14 15 15 16 16 16 17 17 19 18 19 19 22 20 19 20 16 18
9 7 7 8 9 9 9 9 10 10 11 11 11 11 11 9 11 10 10 11 12 13 13 14 14 14 15 15 16 16 17 16 16 17 18 17 18 19 20 19 19 19 19
9 9 8 8 9 9 9 9 10 10 10 10 10 10 9 11 11 11 11 12 13 13 14 14 14 15 15 15 16 16 16 16 16 16 16 16 18 20 18 17 18 18 19
9 9 10 9 9 10 10 9 9 10 10 11 10 10 7 9 10 11 11 12 12 13 13 13 14 14 14 14 14 15 15 15 15 15 15 15 15 16 16 17 17 17 18
9 10 11 11 9 9 10 10 10 10 10 10 10 10 10 9 10 10 10 11 12 12 12 13 13 14 13 13 13 13 14 15 14 14 14 15 15 16 16 16 17 17 17
9 10 10 11 10 10 10 9 10 9 10 10 10 10 10 10 10 10 10 10 11 11 11 11 12 12 12 12 12 12 13 12 13 13 13 14 15 14 15 16 16 16 16
8 9 9 11 11 11 10 10 10 9 9 10 10 10 10 11 10 10 10 10 11 11 11 11 11 11 12 12 13 12 12 11 12 12 13 14 14 14 15 16 16 15 16
7 8 10 11 12 11 11 10 10 9 9 9 10 10 11 11 11 11 11 11 11 11 12 12 12 12 13 13 13 13 11 11 11 11 14 14 15 15 15 16 16 15 16